Tracking 35334 objects as of 13-Sep-2026
HD Live streaming from Space Station
objects crossing your sky now

AMC-7 (GE-7)

Track AMC-7 (GE-7) now!
AMC-7 (GE-7) is classified as:


NORAD ID: 26495
Int'l Code: 2000-054B
Launch date: September 14, 2000
Source: SOCIETE EUROPEENNE DES SATELLITES (SES)
Launch site: FRENCH GUIANA (FRGUI)

Cable programming; 24 C-band; CONUS, Alaska, Hawaii, Caribbean
Your satellite tracking list
Your tracking list is empty




NASA's NSSDC Master Catalog

Two Line Element Set (TLE):
1 26495U 00054B   26255.72633846 -.00000048  00000-0  00000-0 0  9997
2 26495   7.1315  69.1704 0007352 119.1683  87.3784  0.99134565 94831
Source of the keplerian elements: AFSPC